Погода в Вьентьяне

Лаос     17°58′08″N   102°36′45″E
темп.,
°C
ветер,
м/с
пор.,
м/с
влажн.,
%
обл.,
%
осадки,
мм/ч
давл.,
гПа
погр.,
м
10 августа, ср
ср1001:00+23сз119664 1.6 100424
04:00+23зсз119645 0.4 100330
07:00+24з129423 0.8 1004110
10:00+28зсз237366 0.1 1005997
13:00+30зсз1266100 0.3 10021089
16:00+29юз2273100 0.2 1001426
19:00+26ю1185100 0.4 100212
22:00+25юз2292100 0.1 100450
11 августа, чт
чт1101:00+24юз1192100 0.1 100323
04:00+24зюз1192100 0.0 100117
07:00+24зюз1192100 0.0 100354
10:00+26зюз0185100 0.0 1004324
13:00+28зсз1275100 0.3 1002742
16:00+25с2394100 4.5 1001226
19:00+24с2295100 8.8 100247
22:00+23ю1198100 5.0 100433
12 августа, пт
пт1201:00+23ююз1298100 7.9 100486
04:00+23ю1499100 2.4 1003247
07:00+23ююз1498100 4.8 1005192
10:00+24юз1396100 2.1 1006185
13:00+25юз1391100 4.1 1005271
16:00+26з1287100 3.3 1004260
19:00+24с119197 6.0 100511
22:00+23ссз1194100 0.1 100816
13 августа, сб
сб1301:00+23с1196100 0.1 100717
04:00+22ссз0197100 0.0 100613
07:00+23в1195100 0.0 100878
10:00+28ююв127785 0.2 1008814
13:00+28юз238399 3.8 1006760
16:00+27зюз2386100 3.2 1005498
19:00+25з1192100 6.3 100611
22:00+24сз1194100 0.1 100811
14 августа, вс
вс1401:00+23сз1195100 0.9 100724
04:00+23сз1196100 0.0 100619
07:00+24зюз1194100 0.0 100858
10:00+28зюз137491 0.0 1008834
13:00+30зюз2466100 0.9 10061243
16:00+29юз2577100 1.6 1004520
19:00+26юз2289100 3.4 100536
22:00+25юз2291100 1.1 100737